TimeCDT,TemperatureF,Dew PointF,Humidity,Sea Level PressureIn,VisibilityMPH,Wind Direction,Wind SpeedMPH,Gust SpeedMPH,PrecipitationIn,Events,Conditions,WindDirDegrees,DateUTC
12:53 AM,84.0,68.0,58,29.95,10.0,SSW,10.4,-,N/A,,Clear,200,2013-07-10 05:53:00
1:53 AM,84.0,68.0,58,29.94,10.0,SSW,11.5,-,N/A,,Clear,200,2013-07-10 06:53:00
2:53 AM,82.9,68.0,60,29.99,10.0,WNW,12.7,19.6,N/A,,Scattered Clouds,290,2013-07-10 07:53:00
3:53 AM,80.1,69.1,69,29.96,10.0,SSW,6.9,-,N/A,,Clear,200,2013-07-10 08:53:00
4:53 AM,80.1,69.1,69,29.96,10.0,SSW,4.6,-,N/A,,Scattered Clouds,210,2013-07-10 09:53:00
5:53 AM,77.0,69.1,76,29.97,10.0,South,4.6,-,N/A,,Scattered Clouds,170,2013-07-10 10:53:00
6:53 AM,78.1,70.0,76,29.98,10.0,Calm,Calm,-,N/A,,Overcast,0,2013-07-10 11:53:00
7:53 AM,79.0,70.0,74,29.96,10.0,SE,6.9,-,0.00,,Partly Cloudy,130,2013-07-10 12:53:00
8:53 AM,81.0,68.0,65,29.96,10.0,SSE,9.2,-,N/A,,Partly Cloudy,150,2013-07-10 13:53:00
9:53 AM,86.0,70.0,59,29.97,10.0,SSE,6.9,-,N/A,,Clear,160,2013-07-10 14:53:00
10:53 AM,87.1,69.1,55,29.99,10.0,West,8.1,-,N/A,,Clear,270,2013-07-10 15:53:00
11:53 AM,89.1,66.9,48,29.99,10.0,WNW,5.8,-,N/A,,Clear,290,2013-07-10 16:53:00
12:53 PM,91.9,70.0,48,29.98,10.0,NE,4.6,-,N/A,,Clear,40,2013-07-10 17:53:00
1:53 PM,93.9,66.9,41,29.96,10.0,Calm,Calm,-,N/A,,Clear,0,2013-07-10 18:53:00
2:53 PM,96.1,66.9,38,29.95,10.0,Variable,4.6,-,N/A,,Clear,0,2013-07-10 19:53:00
3:53 PM,98.1,68.0,37,29.94,10.0,NNE,4.6,-,N/A,,Clear,30,2013-07-10 20:53:00
4:53 PM,97.0,66.0,36,29.91,10.0,Variable,4.6,-,N/A,,Clear,0,2013-07-10 21:53:00
5:53 PM,97.0,64.9,35,29.89,10.0,Variable,5.8,-,N/A,,Clear,0,2013-07-10 22:53:00
6:53 PM,95.0,64.0,36,29.89,10.0,Variable,4.6,-,N/A,,Clear,0,2013-07-10 23:53:00
7:53 PM,91.0,69.1,48,29.90,10.0,NNE,4.6,-,N/A,,Clear,20,2013-07-11 00:53:00
8:53 PM,86.0,73.9,67,29.92,10.0,NE,6.9,-,N/A,,Clear,40,2013-07-11 01:53:00
9:53 PM,84.0,73.9,72,29.95,10.0,ENE,5.8,-,N/A,,Clear,60,2013-07-11 02:53:00
10:53 PM,82.0,73.9,76,29.97,10.0,NE,5.8,-,N/A,,Clear,50,2013-07-11 03:53:00
11:53 PM,80.1,73.0,79,29.98,10.0,NE,5.8,-,N/A,,Clear,40,2013-07-11 04:53:00